MDT,Max TemperatureF,Mean TemperatureF,Min TemperatureF,Max Dew PointF,MeanDew PointF,Min DewpointF,Max Humidity, Mean Humidity, Min Humidity, Max Sea Level PressureIn, Mean Sea Level PressureIn, Min Sea Level PressureIn, Max VisibilityMiles, Mean VisibilityMiles, Min VisibilityMiles, Max Wind SpeedMPH, Mean Wind SpeedMPH, Max Gust SpeedMPH,PrecipitationIn, CloudCover, Events, WindDirDegrees
2012-9-1,90,73,57,35,32,28,39,21,11,29.99,29.91,29.83,10,10,10,18,7,22,0.00,0,,181
2012-9-2,93,74,57,44,39,34,44,28,15,30.17,29.90,29.83,10,10,10,15,8,23,0.00,1,,360
2012-9-3,90,76,64,57,46,40,65,36,19,30.24,29.90,29.83,10,10,10,16,10,22,0.08,2,Rain,15
2012-9-4,88,74,60,50,41,33,64,35,15,29.98,29.88,29.81,10,10,10,14,7,,0.00,0,,20
2012-9-5,87,72,61,42,37,34,50,29,17,29.95,29.86,29.81,10,10,10,14,6,20,0.00,1,Rain,340
2012-9-6,90,75,60,52,45,35,62,35,18,29.95,29.85,29.75,10,10,10,16,9,22,0.00,1,,177
2012-9-7,82,68,55,52,46,41,88,45,26,30.19,29.92,29.80,10,10,10,26,5,32,0.00,3,Rain,178
2012-9-8,70,62,54,46,43,39,67,53,32,30.26,30.17,30.07,10,10,10,18,12,25,0.00,5,,163
2012-9-9,80,62,45,50,42,37,80,53,23,30.21,30.13,30.03,10,10,10,18,6,26,0.00,0,,297
2012-9-10,78,65,53,58,52,46,88,69,40,30.26,30.03,29.92,10,9,2,15,5,25,0.34,4,Rain-Thunderstorm,110
2012-9-11,82,68,54,53,50,45,93,58,26,30.13,29.92,29.81,10,10,10,22,5,29,0.00,2,Rain-Thunderstorm,255
2012-9-12,64,58,53,58,55,51,97,86,65,30.34,30.00,29.86,10,10,5,10,5,,0.35,7,Rain,230
2012-9-13,64,57,48,52,48,44,100,83,52,30.49,30.29,30.12,10,10,8,14,8,21,0.37,6,Rain,172
2012-9-14,66,54,41,45,41,37,96,64,34,30.38,30.30,30.23,10,10,10,13,4,,0.00,0,,117
2012-9-15,75,57,39,41,37,30,93,50,19,30.27,30.15,30.04,10,10,10,12,5,,0.00,0,,330
2012-9-16,82,64,46,40,33,21,77,38,13,30.05,29.96,29.86,10,10,10,14,6,21,0.00,0,,348
2012-9-17,81,62,44,40,31,20,71,35,11,30.18,29.94,29.79,10,10,7,38,7,67,0.00,0,,2
2012-9-18,77,58,42,40,35,27,85,45,17,30.17,30.08,30.02,10,10,10,10,5,17,0.00,0,,327
2012-9-19,82,62,44,32,27,20,58,29,11,30.08,30.01,29.95,10,10,10,10,5,,0.00,0,,17
2012-9-20,82,64,45,26,20,11,48,22,7,30.04,29.97,29.88,10,10,10,17,7,25,0.00,0,,352
2012-9-21,82,64,48,27,23,16,41,22,9,30.06,29.98,29.91,10,10,10,16,8,,0.00,0,,359
2012-9-22,84,68,52,31,24,18,40,23,9,30.10,30.02,29.98,10,10,10,14,6,21,0.00,0,,352
2012-9-23,84,68,51,31,27,22,43,24,11,30.13,30.03,29.97,10,10,10,13,6,20,0.00,0,,250
2012-9-24,81,66,53,41,31,25,49,30,16,30.15,29.94,29.85,10,10,10,22,7,31,0.00,3,,314
2012-9-25,73,60,48,47,42,36,89,56,28,30.11,29.91,29.82,10,10,10,20,9,32,0.01,3,Rain-Thunderstorm,320
2012-9-26,75,62,48,45,38,28,83,47,18,29.99,29.93,29.87,10,10,10,18,10,28,0.00,1,,1
2012-9-27,77,62,46,47,38,29,68,43,19,30.02,29.96,29.89,10,10,10,14,8,23,0.00,2,Rain,160
2012-9-28,72,63,54,52,46,40,89,61,37,30.23,30.02,29.91,10,10,10,17,7,25,0.02,5,Rain-Thunderstorm,141
2012-9-29,75,60,48,49,44,39,93,58,33,30.10,30.01,29.92,10,10,10,14,7,21,0.00,2,,182
2012-9-30,78,62,46,41,35,25,74,44,15,30.04,29.97,29.89,10,10,10,21,8,26,0.00,1,,4